When you browse on this site, cookies collect data to enhance your experience and personalize the content and advertising you see.
Visit our Privacy Policy to learn more. By continuing to use the site, you agree to this use of cookies and data.
  • In Austria
  • List of Countries
  • For 7 days
  • Water Temperature
  • Satellite Maps
  • Weather Map
  • News
  • Weather Widgets
  • user-avatar
    Login

    Hourly Weather Commerce City

    Today, 19 June, Wednesday

    Time Temperature Precipitation Wind Pressure Humidity
    00:00 +16°C° 0 mm 2 mps 630 mmHg 63%
    01:00 +16°C° 0 mm 3 mps 630 mmHg 61%
    02:00 +16°C° 0 mm 3 mps 630 mmHg 59%
    03:00 +16°C° 0 mm 3 mps 630 mmHg 58%
    04:00 +16°C° 0 mm 3 mps 630 mmHg 58%
    05:00 +16°C° 0 mm 3 mps 630 mmHg 57%
    06:00 +18°C° 0 mm 4 mps 630 mmHg 50%
    07:00 +20°C° 0 mm 4 mps 630 mmHg 44%
    08:00 +22°C° 0 mm 4 mps 631 mmHg 37%
    09:00 +23°C° 0 mm 4 mps 631 mmHg 33%
    10:00 +26°C° 0 mm 4 mps 631 mmHg 28%
    11:00 +27°C° 0 mm 4 mps 631 mmHg 24%
    12:00 +28°C° 0 mm 4 mps 631 mmHg 22%
    13:00 +29°C° 0 mm 4 mps 631 mmHg 21%
    14:00 +30°C° 0 mm 4 mps 630 mmHg 19%
    15:00 +30°C° 0 mm 4 mps 630 mmHg 21%
    16:00 +29°C° 0 mm 5 mps 630 mmHg 24%
    17:00 +29°C° 0 mm 5 mps 629 mmHg 26%
    18:00 +27°C° 0 mm 5 mps 629 mmHg 27%
    19:00 +26°C° 0 mm 4 mps 629 mmHg 29%
    20:00 +24°C° 0 mm 3 mps 629 mmHg 30%
    21:00 +24°C° 0 mm 3 mps 629 mmHg 32%
    22:00 +22°C° 0 mm 3 mps 629 mmHg 34%
    23:00 +21°C° 0 mm 4 mps 629 mmHg 36%

    Tomorrow, 20 June, Thursday

    Time Temperature Precipitation Wind Pressure Humidity
    00:00 +20°C° 0 mm 3 mps 628 mmHg 38%
    01:00 +19°C° 0 mm 3 mps 628 mmHg 40%
    02:00 +18°C° 0 mm 2 mps 628 mmHg 42%
    03:00 +18°C° 0 mm 2 mps 628 mmHg 43%
    04:00 +18°C° 0 mm 2 mps 628 mmHg 43%
    05:00 +17°C° 0 mm 2 mps 628 mmHg 44%
    06:00 +19°C° 0 mm 2 mps 628 mmHg 40%
    07:00 +21°C° 0 mm 2 mps 628 mmHg 35%
    08:00 +24°C° 0 mm 2 mps 629 mmHg 31%
    09:00 +26°C° 0 mm 2 mps 629 mmHg 26%
    10:00 +28°C° 0 mm 2 mps 629 mmHg 22%
    11:00 +30°C° 0 mm 2 mps 630 mmHg 18%
    12:00 +31°C° 0 mm 3 mps 630 mmHg 16%
    13:00 +33°C° 0 mm 3 mps 629 mmHg 15%
    14:00 +34°C° 0 mm 4 mps 629 mmHg 14%
    15:00 +32°C° 0 mm 5 mps 629 mmHg 19%
    16:00 +30°C° 0 mm 7 mps 628 mmHg 23%
    17:00 +28°C° 0 mm 8 mps 628 mmHg 28%
    18:00 +26°C° 0.1 mm 6 mps 627 mmHg 37%
    19:00 +22°C° 0.1 mm 4 mps 626 mmHg 47%
    20:00 +19°C° 0.1 mm 3 mps 625 mmHg 57%
    21:00 +19°C° 0 mm 2 mps 625 mmHg 58%
    22:00 +18°C° 0 mm 2 mps 625 mmHg 59%
    23:00 +17°C° 0 mm 2 mps 626 mmHg 60%

    Day after tomorrow, 21 June, Friday

    Time Temperature Precipitation Wind Pressure Humidity
    00:00 +17°C° 0 mm 2 mps 625 mmHg 64%
    01:00 +16°C° 0 mm 1 mps 625 mmHg 67%
    02:00 +16°C° 0 mm 1 mps 625 mmHg 71%
    03:00 +16°C° 0 mm 1 mps 625 mmHg 70%
    04:00 +16°C° 0 mm 1 mps 625 mmHg 70%
    05:00 +15°C° 0 mm 1 mps 625 mmHg 70%
    06:00 +16°C° 0 mm 2 mps 626 mmHg 68%
    07:00 +17°C° 0 mm 3 mps 626 mmHg 67%
    08:00 +18°C° 0 mm 3 mps 627 mmHg 65%
    09:00 +19°C° 0 mm 3 mps 627 mmHg 61%
    10:00 +20°C° 0 mm 3 mps 627 mmHg 57%
    11:00 +21°C° 0 mm 3 mps 627 mmHg 54%
    12:00 +22°C° 0.3 mm 4 mps 627 mmHg 49%
    13:00 +25°C° 0.3 mm 5 mps 628 mmHg 45%
    14:00 +26°C° 0.3 mm 5 mps 628 mmHg 41%
    15:00 +25°C° 1.1 mm 5 mps 627 mmHg 48%
    16:00 +22°C° 1.1 mm 5 mps 627 mmHg 55%
    17:00 +21°C° 1.1 mm 6 mps 627 mmHg 62%
    18:00 +19°C° 1.6 mm 6 mps 627 mmHg 68%
    19:00 +17°C° 1.6 mm 6 mps 627 mmHg 74%
    20:00 +15°C° 1.6 mm 6 mps 627 mmHg 80%
    21:00 +14°C° 0.6 mm 5 mps 628 mmHg 81%
    22:00 +13°C° 0.6 mm 4 mps 628 mmHg 81%
    23:00 +12°C° 0.6 mm 3 mps 629 mmHg 81%

    22 June, Saturday

    Time Temperature Precipitation Wind Pressure Humidity
    00:00 +13°C° 0 mm 2 mps 629 mmHg 80%
    01:00 +13°C° 0 mm 2 mps 629 mmHg 79%
    02:00 +13°C° 0 mm 1 mps 629 mmHg 78%
    03:00 +13°C° 0 mm 1 mps 629 mmHg 78%
    04:00 +13°C° 0 mm 1 mps 629 mmHg 79%
    05:00 +12°C° 0 mm 1 mps 628 mmHg 79%
    06:00 +14°C° 0 mm 1 mps 629 mmHg 73%
    07:00 +15°C° 0 mm 2 mps 629 mmHg 66%
    08:00 +16°C° 0 mm 2 mps 629 mmHg 59%
    09:00 +18°C° 0 mm 2 mps 629 mmHg 55%
    10:00 +20°C° 0 mm 3 mps 629 mmHg 50%
    11:00 +22°C° 0 mm 3 mps 629 mmHg 46%
    12:00 +23°C° 0.3 mm 4 mps 629 mmHg 45%
    13:00 +23°C° 0.3 mm 5 mps 629 mmHg 44%
    14:00 +25°C° 0.3 mm 5 mps 629 mmHg 43%
    15:00 +22°C° 1.2 mm 5 mps 628 mmHg 52%
    16:00 +21°C° 1.2 mm 5 mps 627 mmHg 61%
    17:00 +19°C° 1.2 mm 5 mps 626 mmHg 70%
    18:00 +12°C° 0.5 mm 7 mps 626 mmHg 79%
    19:00 +11°C° 0.5 mm 6 mps 627 mmHg 81%
    20:00 +10°C° 0.5 mm 5 mps 627 mmHg 82%
    21:00 +11°C° 0.3 mm 4 mps 627 mmHg 81%
    22:00 +11°C° 0.3 mm 3 mps 627 mmHg 79%
    23:00 +11°C° 0.3 mm 1 mps 628 mmHg 77%

    23 June, Sunday

    Time Temperature Precipitation Wind Pressure Humidity
    00:00 +11°C° 0 mm 1 mps 627 mmHg 76%
    01:00 +12°C° 0 mm 1 mps 627 mmHg 74%
    02:00 +12°C° 0 mm 1 mps 627 mmHg 73%
    03:00 +12°C° 0 mm 2 mps 627 mmHg 73%
    04:00 +12°C° 0 mm 2 mps 627 mmHg 73%
    05:00 +12°C° 0 mm 2 mps 628 mmHg 72%
    06:00 +11°C° 0.6 mm 3 mps 628 mmHg 75%
    07:00 +11°C° 0.6 mm 3 mps 628 mmHg 77%
    08:00 +10°C° 0.6 mm 3 mps 628 mmHg 80%
    09:00 +12°C° 0.5 mm 3 mps 628 mmHg 72%
    10:00 +13°C° 0.5 mm 3 mps 629 mmHg 65%
    11:00 +16°C° 0.5 mm 3 mps 630 mmHg 57%
    12:00 +17°C° 0.1 mm 3 mps 630 mmHg 50%
    13:00 +19°C° 0.1 mm 2 mps 630 mmHg 43%
    14:00 +21°C° 0.1 mm 2 mps 630 mmHg 36%
    15:00 +21°C° 0 mm 3 mps 630 mmHg 34%
    16:00 +22°C° 0 mm 3 mps 630 mmHg 32%
    17:00 +22°C° 0 mm 3 mps 630 mmHg 31%
    18:00 +21°C° 0 mm 3 mps 630 mmHg 34%
    19:00 +19°C° 0 mm 3 mps 630 mmHg 38%
    20:00 +18°C° 0 mm 3 mps 629 mmHg 41%
    21:00 +17°C° 0 mm 3 mps 630 mmHg 43%
    22:00 +17°C° 0 mm 3 mps 630 mmHg 44%
    23:00 +17°C° 0 mm 2 mps 630 mmHg 45%

    24 June, Monday

    Time Temperature Precipitation Wind Pressure Humidity
    00:00 +16°C° 0 mm 3 mps 630 mmHg 45%
    01:00 +16°C° 0 mm 3 mps 629 mmHg 46%
    02:00 +14°C° 0 mm 3 mps 629 mmHg 47%
    03:00 +14°C° 0 mm 3 mps 629 mmHg 48%
    04:00 +14°C° 0 mm 3 mps 630 mmHg 49%
    05:00 +14°C° 0 mm 3 mps 630 mmHg 50%
    06:00 +17°C° 0 mm 3 mps 630 mmHg 45%
    07:00 +19°C° 0 mm 4 mps 631 mmHg 39%
    08:00 +21°C° 0 mm 4 mps 631 mmHg 34%
    09:00 +23°C° 0 mm 4 mps 631 mmHg 29%
    10:00 +26°C° 0 mm 5 mps 632 mmHg 25%
    11:00 +28°C° 0 mm 5 mps 632 mmHg 20%
    12:00 +29°C° 0 mm 5 mps 632 mmHg 19%
    13:00 +29°C° 0 mm 6 mps 632 mmHg 19%
    14:00 +30°C° 0 mm 6 mps 632 mmHg 18%
    15:00 +30°C° 0 mm 6 mps 632 mmHg 19%
    16:00 +29°C° 0 mm 6 mps 632 mmHg 21%
    17:00 +29°C° 0 mm 6 mps 632 mmHg 22%
    18:00 +27°C° 0 mm 4 mps 632 mmHg 26%
    19:00 +25°C° 0 mm 3 mps 632 mmHg 30%
    20:00 +23°C° 0 mm 1 mps 632 mmHg 34%
    21:00 +21°C° 0 mm 2 mps 632 mmHg 35%
    22:00 +20°C° 0 mm 2 mps 632 mmHg 37%
    23:00 +19°C° 0 mm 2 mps 632 mmHg 38%
    Show more